Probability
0 0 0 0 0 0 0 0 0 0 0 0 0 0 0 0 0 0 0 0 0 0 0 0 0 0 0 1 2 3 3 3 3 2 1 0 0 0 0 0 1 2 3 5
0 0 0 0 0 0 0 0 0 0 0 0 0 0 0 0 0 0 0 0 0 0 0 0 0 0 0 0 1 2 2 2 2 1 0 0 0 0 0 0 0 1 3 4
0 0 0 0 0 0 0 0 0 0 0 0 0 0 0 0 0 0 0 0 0 0 0 0 0 0 0 0 0 1 1 1 1 0 0 0 0 1 1 0 0 1 2 2
0 0 0 0 0 0 0 0 0 0 0 0 0 0 0 0 0 0 0 0 0 0 0 0 0 0 0 0 0 0 0 1 1 1 1 1 1 2 2 1 1 1 1 1
0 0 0 0 0 0 0 0 0 0 0 0 0 0 0 0 0 0 0 0 0 0 0 0 0 0 0 0 0 0 0 1 2 2 3 3 3 3 3 2 1 1 0 0
0 0 0 0 0 0 0 0 0 0 0 0 0 0 0 0 0 0 0 0 0 0 0 0 0 0 0 0 0 0 0 1 1 2 3 4 5 5 4 3 2 1 0 0
0 0 0 0 0 0 0 0 0 0 0 0 0 0 0 0 0 0 0 0 0 0 0 0 0 0 0 0 0 0 0 0 0 0 2 3 4 5 4 2 1 1 0 0
0 0 0 0 0 0 0 0 0 0 0 0 0 0 0 0 0 0 0 0 0 0 0 0 0 0 0 0 0 0 0 0 0 0 0 1 2 3 2 1 0 0 0 0
0 0 0 0 0 0 0 0 0 0 0 0 0 0 0 0 0 0 0 0 0 0 0 0 0 0 0 1 0 0 0 0 0 0 0 0 1 1 0 0 0 0 0 0
0 0 0 0 0 0 0 0 0 0 0 0 0 0 0 0 0 0 0 0 0 0 0 0 0 0 0 0 0 0 0 0 0 0 0 0 0 0 0 0 0 0 0 0
0 0 0 0 0 0 0 0 0 0 0 0 0 0 0 0 0 0 0 0 0 0 0 0 0 0 0 0 0 0 0 0 0 0 0 0 0 0 0 0 0 0 0 0
0 0 0 0 0 0 0 0 0 0 0 0 0 0 0 0 0 0 0 0 0 0 0 0 0 0 0 0 0 0 0 0 0 0 0 0 0 0 0 0 0 0 0 0
0 0 0 0 0 0 0 0 0 0 0 0 0 0 0 0 0 0 0 0 0 0 0 0 0 0 0 0 0 0 0 0 0 0 0 0 0 0 0 0 0 0 0 0
0 0 0 0 0 0 0 0 0 0 0 0 0 0 0 0 0 0 0 0 0 0 0 0 0 0 0 0 0 0 0 0 0 0 0 0 0 0 0 0 0 0 0 0
0 0 0 0 0 0 0 0 0 0 0 0 0 0 0 0 0 0 0 0 0 0 0 0 0 0 0 0 0 0 0 0 0 0 0 0 0 0 0 0 0 0 0 0
0 0 0 0 0 0 0 0 0 0 0 0 0 0 0 0 0 0 0 0 0 0 0 0 0 0 0 0 0 0 0 0 0 0 0 0 0 0 0 0 0 0 0 0
0 0 0 0 0 0 0 0 0 0 0 0 0 0 0 0 0 0 0 0 0 0 0 0 0 0 0 0 0 0 0 0 0 0 0 0 0 0 0 0 0 0 0 0
0 0 0 0 0 0 0 0 0 0 0 0 0 0 0 0 0 0 0 0 0 0 0 0 0 0 0 0 0 0 0 0 0 0 0 0 0 0 0 0 0 0 0 0
0 0 0 0 0 0 0 0 0 0 0 0 0 0 0 0 0 0 0 0 0 0 0 0 0 0 0 0 0 0 0 0 0 0 0 0 0 0 0 0 0 0 0 0
0 0 0 0 0 0 0 0 0 0 0 0 0 0 0 0 0 0 0 0 0 0 0 0 0 0 0 0 0 0 0 0 0 0 0 0 0 0 0 0 0 0 0 0
0 0 0 0 0 0 0 0 0 0 0 0 0 0 0 0 0 0 0 0 0 0 0 0 0 0 0 0 0 0 0 0 0 0 0 0 0 0 0 0 0 0 0 0
0 0 0 0 0 0 0 0 0 0 0 0 0 0 0 0 0 0 0 0 0 0 0 0 0 0 0 0 0 0 0 0 0 0 0 0 0 0 0 0 0 0 0 0
0 0 0 0 0 0 0 0 0 0 0 0 0 0 0 0 0 0 0 0 0 0 0 0 0 0 0 0 0 0 0 0 0 0 0 0 0 0 0 0 0 0 0 0
0 0 0 0 0 0 0 0 0 0 0 0 0 0 0 0 0 0 0 0 0 0 0 0 0 0 0 0 0 0 0 0 0 0 0 0 0 0 0 0 0 0 0 0
0 0 0 0 0 0 0 0 0 0 0 0 0 0 0 0 0 0 0 0 0 0 0 0 0 0 0 0 0 0 0 0 0 0 0 0 0 0 0 0 0 0 0 0
0 0 0 0 0 0 0 0 0 0 0 0 0 0 0 0 0 0 0 0 0 0 0 0 0 0 0 0 0 0 0 0 0 0 0 0 0 0 0 0 0 0 0 0
0 0 0 0 0 0 0 0 0 0 0 0 0 0 0 0 0 0 0 0 0 0 0 0 0 0 0 0 0 0 0 0 0 0 0 0 0 0 0 0 0 0 0 0
Wind_Speed
9 8 8 10 11 12 14 14 14 12 12 9 6 5 4 3 2 1 1 1 1 1 1 1 1 1 1 2 3 5 6 7 7 7 7 7 7 7 6 6 6 6 6 6
9 8 9 11 12 13 14 14 14 14 12 6 5 5 5 4 3 2 2 2 2 2 2 2 1 1 1 1 2 4 5 6 5 6 6 6 6 6 6 6 6 6 6 6
8 6 9 12 10 10 11 10 11 12 8 5 6 5 5 4 4 4 3 3 3 3 3 3 2 2 2 2 2 3 4 5 5 6 6 6 6 6 6 7 7 7 7 6
6 7 12 4 1 6 8 9 8 7 6 6 6 5 5 5 5 5 4 4 3 3 3 2 2 2 1 1 1 3 3 4 4 5 6 5 6 6 6 6 6 6 6 7
6 8 10 6 3 4 7 8 6 7 6 6 5 6 5 3 4 5 4 4 3 3 3 3 2 2 2 1 1 2 3 3 4 4 5 6 6 6 6 6 6 6 6 6
7 9 9 3 0 2 6 8 2 4 5 5 5 6 3 3 4 4 3 3 3 2 3 3 2 2 2 2 2 2 3 3 3 4 5 6 6 6 5 5 6 5 5 6
9 10 8 2 1 2 7 3 2 3 4 5 6 5 5 4 4 4 3 3 3 3 3 2 2 2 3 3 2 2 2 3 3 4 4 4 4 4 5 4 5 5 5 5
7 9 6 1 2 4 4 4 3 4 4 5 5 5 5 4 4 3 2 2 2 2 2 2 2 3 3 2 2 1 1 2 3 3 3 3 3 3 4 4 5 5 4 4
6 5 3 3 4 5 5 5 5 5 5 5 5 5 5 4 3 2 2 2 2 2 2 1 2 2 3 2 1 1 2 2 2 3 3 3 3 3 3 4 3 3 3 4
8 8 7 6 6 6 6 6 6 6 6 5 6 5 5 4 3 2 1 1 1 1 2 1 1 2 2 2 2 3 2 2 2 2 2 2 2 3 3 3 3 3 3 3
10 8 7 6 5 5 5 5 5 5 5 5 5 5 4 3 3 2 1 1 1 2 2 2 2 2 1 2 3 3 2 1 1 1 1 2 2 2 3 2 2 3 3 3
8 6 7 7 6 6 6 6 5 5 5 5 5 4 4 3 2 2 2 2 2 2 2 2 2 2 1 2 2 2 2 1 1 1 1 2 2 1 1 0 1 1 1 2
8 7 7 7 6 5 5 5 5 5 5 5 4 4 3 3 3 2 2 2 2 2 2 2 2 2 1 2 2 3 2 2 1 1 2 2 2 2 2 2 2 2 2 1
6 6 7 7 6 4 4 4 4 4 4 4 3 3 3 2 2 2 3 2 2 2 2 2 2 1 1 1 2 2 2 2 1 1 2 2 2 2 2 2 2 2 2 3
7 7 7 5 4 4 4 3 3 3 3 3 2 2 3 3 3 2 2 2 2 2 2 1 1 1 1 1 2 2 2 1 1 1 1 1 1 1 2 2 1 1 1 2
6 5 5 5 5 4 4 4 4 4 3 3 3 3 3 3 2 2 1 1 2 2 2 1 1 1 1 1 1 1 1 2 1 1 1 1 1 1 1 1 1 1 1 1
6 6 6 6 5 4 4 4 4 4 4 4 3 3 2 2 2 2 1 2 2 2 1 1 1 1 1 1 1 1 1 2 2 1 1 1 1 1 1 1 2 2 1 1
6 6 6 6 5 4 5 5 5 4 4 4 3 2 2 2 2 2 1 1 1 1 1 1 0 0 1 1 1 1 1 1 1 1 1 1 1 1 1 1 2 2 1 2
5 5 5 4 4 4 4 5 5 4 3 3 3 2 2 2 1 1 1 1 2 2 1 1 0 1 1 0 0 1 1 1 1 1 1 2 1 1 1 1 1 1 1 2
3 3 3 3 3 3 3 3 3 3 3 2 3 2 2 1 1 1 1 2 2 2 1 0 1 0 0 1 1 1 1 1 1 1 1 2 1 1 1 1 1 2 2 2
3 3 3 3 3 3 3 3 3 3 3 3 3 3 2 1 1 1 1 2 1 1 1 0 1 0 1 1 1 1 1 1 1 1 1 1 1 1 1 1 1 1 2 2
3 3 3 3 3 3 3 3 3 3 2 2 2 2 2 2 1 1 2 1 1 0 1 1 1 1 1 1 1 1 1 1 1 1 1 1 1 1 1 1 1 1 2 2
3 3 3 3 3 3 3 3 3 2 2 2 2 3 3 2 2 2 2 1 1 0 1 0 1 2 2 1 1 1 1 1 1 1 1 1 1 1 1 2 1 2 2 2
2 3 3 2 2 3 3 3 2 2 2 2 3 3 3 2 2 1 1 0 1 1 1 1 3 2 2 1 1 1 1 1 1 1 1 1 1 1 2 2 2 2 2 3
2 2 2 2 2 2 2 2 2 2 2 2 2 2 2 2 2 1 1 1 1 1 1 2 3 2 1 1 1 1 1 1 1 1 1 1 1 2 2 2 2 2 2 3
2 2 2 3 2 2 1 1 2 2 2 2 1 1 1 1 1 1 1 1 2 2 1 1 1 1 1 1 1 1 0 1 1 1 1 1 2 2 2 2 3 2 3 3
2 2 2 2 1 2 2 2 2 2 2 2 2 1 1 1 1 2 2 1 1 1 1 1 1 1 1 1 1 1 0 0 1 1 1 1 2 2 2 3 3 3 3 3
Wind_Direction
267 272 262 256 250 238 239 250 259 264 267 275 281 281 280 279 279 256 229 222 221 230 230 184 166 166 185 214 207 200 201 206 209 207 204 208 209 208 207 208 212 210 212 215
253 252 258 258 254 249 247 250 254 261 264 274 274 270 264 262 260 260 265 258 247 233 234 236 222 208 217 225 216 207 205 207 205 208 204 206 209 209 207 208 211 211 213 213
253 252 259 250 245 242 241 243 250 258 269 275 269 267 263 266 260 266 271 263 253 243 233 241 246 241 249 250 223 213 214 210 203 202 203 207 208 208 208 208 207 208 211 211
263 254 249 258 260 245 243 244 247 255 268 270 273 279 273 265 271 276 275 267 257 253 250 251 258 262 262 257 226 217 217 216 209 206 201 203 206 208 209 208 206 210 209 209
244 257 263 250 228 233 243 246 248 256 272 280 274 263 251 259 277 279 278 272 260 252 249 252 250 250 240 231 225 223 223 225 218 210 202 201 206 211 211 210 210 214 211 211
240 254 258 256 86 276 259 252 248 266 273 276 266 261 272 319 295 286 286 281 267 248 239 244 253 241 230 232 232 235 235 232 227 219 209 208 212 213 211 213 216 217 216 216
243 254 264 310 8 230 239 272 7 301 282 267 266 286 307 306 301 292 282 269 256 245 239 240 237 227 234 241 249 256 249 236 224 220 218 214 211 210 210 212 217 218 218 218
240 245 248 107 208 246 296 327 307 300 296 285 290 297 292 293 293 286 278 266 249 242 240 233 223 222 231 246 265 268 248 241 227 219 214 206 202 203 205 204 210 214 216 218
249 263 321 284 275 295 300 297 300 302 298 290 284 285 284 285 284 279 278 267 249 236 234 224 224 231 235 244 244 230 223 231 234 219 204 203 206 201 204 204 211 212 213 216
259 256 269 278 281 285 289 287 292 293 289 280 279 278 278 279 280 283 293 286 268 239 239 247 255 258 258 240 224 216 213 211 226 224 203 198 205 206 206 205 210 217 219 219
259 267 270 263 277 288 292 293 292 290 283 275 273 272 276 279 278 277 291 296 274 261 261 265 268 267 268 242 220 216 209 195 214 222 197 204 208 214 222 216 217 229 231 226
263 268 267 274 280 277 280 286 293 292 294 288 276 272 270 272 277 269 275 287 279 271 274 275 267 265 261 239 228 218 206 197 201 211 210 200 199 186 110 191 105 207 271 253
274 277 276 278 278 273 276 286 294 291 286 284 282 275 269 267 267 267 264 270 275 277 278 277 271 268 264 227 221 220 213 204 202 219 213 202 207 205 184 144 150 164 160 166
263 265 264 264 267 268 271 277 285 290 290 286 290 284 274 267 261 261 267 277 280 276 272 274 276 279 283 248 224 220 213 192 204 213 217 205 210 216 210 196 184 166 147 136
253 262 263 261 260 266 272 271 273 279 284 285 281 281 281 275 266 272 287 292 284 276 278 279 273 297 310 266 240 225 211 190 182 187 197 185 184 198 200 194 182 146 128 125
250 257 251 245 247 257 262 264 267 272 274 278 279 278 278 276 273 270 272 268 259 261 268 273 284 314 296 258 242 226 192 125 152 163 155 153 164 174 170 156 139 126 126 113
239 241 245 247 249 255 261 262 267 271 271 272 279 281 271 264 257 252 250 259 268 274 273 266 295 343 286 250 242 220 181 146 150 156 143 144 156 156 158 153 148 142 130 100
246 245 244 246 249 253 262 266 266 269 271 266 260 254 247 243 248 258 270 269 259 271 305 311 360 300 252 254 256 220 190 171 164 151 140 137 145 157 157 159 159 156 139 128
244 249 249 249 253 257 262 268 267 267 269 254 242 241 241 245 250 262 273 260 255 264 299 335 9 235 218 112 139 207 188 162 148 142 138 130 146 148 148 154 157 148 147 145
256 256 256 254 254 258 267 275 273 266 259 244 239 237 238 248 250 238 243 257 267 286 305 328 241 214 151 130 146 201 169 159 156 153 157 166 161 154 160 170 175 174 176 176
262 258 252 251 257 264 264 260 255 256 256 242 237 238 234 229 224 225 237 264 289 320 297 196 211 159 132 117 170 196 166 158 164 173 176 179 176 177 185 194 200 198 198 199
259 255 252 253 259 267 267 259 253 259 264 257 244 228 217 212 215 235 251 271 297 341 267 236 200 108 110 133 165 152 159 160 172 179 183 191 197 203 204 207 213 214 220 219
257 254 252 248 249 258 265 258 248 247 245 242 232 220 214 216 217 228 250 266 254 196 252 210 116 126 146 167 149 152 162 167 175 189 204 214 216 217 214 213 224 224 225 229
260 255 253 250 244 241 247 256 253 244 240 239 231 221 212 209 219 231 258 200 151 170 213 127 134 146 159 167 154 162 173 178 192 200 205 218 226 228 230 227 227 230 232 238
267 264 249 239 232 233 237 248 249 234 227 229 225 222 222 219 219 216 203 186 146 151 158 130 134 148 168 168 162 172 182 190 214 227 223 226 233 241 242 240 238 240 243 244
260 258 251 246 246 235 225 222 229 223 217 220 220 217 208 190 183 181 176 169 158 149 163 154 148 153 175 172 162 173 191 185 209 238 248 252 250 249 249 250 254 252 251 253
261 259 252 245 233 221 218 219 223 222 218 214 216 214 205 188 168 165 175 171 160 161 156 133 122 139 168 178 171 174 196 218 238 254 262 266 266 265 263 261 260 258 257 257